Probability
0 0 0 0 0 0 0 0 0 0 0 0 0 0 0 0 0 0 0 0 0 0 0 0 0 0 0 0 0 0 0 0 0 0 0 0 0 0 0 0 0 0 0
0 0 0 0 0 0 0 0 0 0 0 0 0 0 0 0 0 0 0 0 0 0 0 0 0 0 0 0 0 0 0 0 0 0 0 0 0 0 0 0 0 0 0
0 0 0 0 0 0 0 0 0 0 0 0 0 0 0 0 0 0 0 0 0 0 0 0 0 0 0 0 0 0 0 0 0 0 0 0 0 0 0 0 0 0 0
0 0 0 0 0 0 0 0 0 0 0 0 0 0 0 0 0 0 0 0 0 0 0 0 0 0 0 0 0 0 0 0 0 0 0 0 0 0 0 0 0 0 0
0 0 0 0 0 0 0 0 0 0 0 0 0 0 0 0 0 0 0 0 0 0 0 0 0 0 0 0 0 0 0 0 0 0 0 0 0 0 0 0 0 0 0
0 0 0 0 0 0 0 0 0 0 0 0 0 0 0 0 0 0 0 0 0 0 0 0 0 0 0 0 0 0 0 0 0 0 0 0 0 0 0 0 0 0 0
0 0 0 0 0 0 0 0 0 0 0 0 0 0 0 0 0 0 0 0 0 0 0 0 0 0 0 0 0 0 0 0 0 0 0 0 0 0 0 0 0 0 0
0 0 0 0 0 0 0 0 0 0 0 0 0 0 0 0 0 0 0 0 0 0 0 0 0 0 0 0 0 0 0 0 0 0 0 0 0 0 0 0 0 0 0
0 0 0 0 0 0 0 0 0 0 0 0 0 0 0 0 0 0 0 0 0 0 0 0 0 0 0 0 0 0 0 0 0 0 0 0 0 0 0 0 0 0 0
0 0 0 0 0 0 0 0 0 0 0 0 0 0 0 0 0 0 0 0 0 0 0 0 0 0 0 0 0 0 0 0 0 0 0 0 0 0 0 0 0 0 0
0 0 0 0 0 0 0 0 0 0 0 0 0 0 0 0 0 0 0 0 0 0 0 0 0 0 0 0 0 0 0 0 0 0 0 0 0 0 0 0 0 0 0
0 0 0 0 0 0 0 0 0 0 0 0 0 0 0 0 0 0 0 0 0 0 0 0 0 0 0 0 0 0 0 0 0 0 0 0 0 0 0 0 0 0 0
0 0 0 0 0 0 0 0 0 0 0 0 0 0 0 0 0 0 0 0 0 0 0 0 0 0 0 0 0 0 0 0 0 0 0 0 0 0 0 0 0 0 0
0 0 0 0 0 0 0 0 0 0 0 0 0 0 0 0 0 0 0 0 0 0 0 0 0 0 0 0 0 0 0 0 0 0 0 0 0 0 0 0 0 0 0
0 0 0 0 0 0 0 0 0 0 0 0 0 0 0 0 0 0 0 0 0 0 0 0 0 0 0 0 0 0 0 0 0 0 0 0 0 0 0 0 0 0 0
0 0 0 0 0 0 0 0 0 0 0 0 0 0 0 0 0 0 0 0 0 0 0 0 0 0 0 0 0 0 0 0 0 0 0 0 0 0 0 0 0 0 0
0 0 0 0 0 0 0 0 0 0 0 0 0 0 0 0 0 0 0 0 0 0 0 0 0 0 0 0 0 0 0 0 0 0 0 0 0 0 0 0 0 0 0
0 0 0 0 0 0 0 0 0 0 0 0 0 0 0 0 0 0 0 0 0 0 0 0 0 0 0 0 0 0 0 0 0 0 0 0 0 0 0 0 0 0 0
0 0 0 0 0 0 0 0 0 0 0 0 0 0 0 0 0 0 0 0 0 0 0 0 0 0 0 0 0 0 0 0 0 0 0 0 0 0 0 0 0 0 0
0 0 0 0 0 0 0 0 0 0 0 0 0 0 0 0 0 0 0 0 0 0 0 0 0 0 0 0 0 0 0 0 0 0 0 0 0 0 0 0 0 0 0
0 0 0 0 0 0 0 0 0 0 0 0 0 0 0 0 0 0 0 0 0 0 0 0 0 0 0 0 0 0 0 0 0 0 0 0 0 0 0 0 0 0 0
0 0 0 0 0 0 0 0 0 0 0 0 0 0 0 0 0 0 0 0 0 0 0 0 0 0 0 0 0 0 0 0 0 0 0 0 0 0 0 0 0 0 0
0 0 0 0 0 0 0 0 0 0 0 0 0 0 0 0 0 0 0 0 0 0 0 0 0 0 0 0 0 0 0 0 0 0 0 0 0 0 0 0 0 0 0
0 0 0 0 0 0 0 0 0 0 0 0 0 0 0 0 0 0 0 0 0 0 0 0 0 0 0 0 0 0 0 0 0 0 0 0 0 0 0 0 0 0 0
0 0 0 0 0 0 0 0 0 0 0 0 0 0 0 0 0 0 0 0 0 0 0 0 0 0 0 0 0 0 0 0 0 0 0 0 0 0 0 0 0 0 0
0 0 0 0 0 0 0 0 0 0 0 0 0 0 0 0 0 0 0 0 0 0 0 0 0 0 0 0 0 0 0 0 0 0 0 0 0 0 0 0 0 0 0
Wind_Speed
4 3 7 9 10 11 11 11 12 12 13 13 13 13 13 13 13 12 12 12 12 13 13 13 13 13 13 13 12 12 12 12 12 13 13 13 11 9 5 4 5 4 7
7 5 8 9 10 10 11 11 12 12 13 13 13 13 13 13 12 12 12 12 12 12 12 12 13 13 13 13 13 13 13 13 13 14 13 11 11 9 4 3 5 4 8
8 6 7 9 10 10 11 11 11 11 12 12 12 12 12 11 11 11 11 11 11 11 11 12 12 12 12 12 13 13 14 15 15 15 12 7 8 9 6 5 6 8 9
9 6 7 10 11 11 11 11 11 11 11 11 11 11 11 11 11 11 11 11 11 11 11 12 12 12 12 12 12 13 14 15 16 15 8 7 7 9 8 8 9 10 10
8 6 7 12 12 12 12 12 12 11 11 11 11 11 11 11 11 11 11 11 11 12 12 12 12 12 12 12 12 13 14 14 15 12 8 7 7 9 8 8 9 10 10
8 7 8 13 13 13 13 13 13 12 12 12 12 12 12 12 12 12 12 12 12 12 12 12 12 12 12 12 13 13 14 14 11 7 7 7 7 11 9 7 8 8 9
8 6 7 13 14 14 14 13 13 13 13 13 13 13 13 12 12 12 12 12 12 12 12 12 12 12 12 13 13 14 15 15 9 7 6 7 9 14 11 9 9 9 10
8 6 6 12 12 13 13 13 13 13 13 14 14 14 14 13 13 12 12 12 12 12 12 12 12 12 13 13 14 15 16 15 10 9 7 6 14 16 14 13 13 12 12
7 6 4 5 7 11 12 13 13 13 14 14 14 14 14 14 13 12 12 12 12 12 12 12 12 13 13 13 14 15 15 16 9 6 8 7 15 16 15 15 15 15 15
7 7 6 5 4 4 6 11 12 13 13 14 14 14 14 13 12 12 10 11 11 11 12 12 12 12 13 13 14 15 15 12 7 7 5 9 17 16 15 15 15 15 15
8 8 8 7 6 5 5 8 10 12 12 12 11 13 11 6 5 6 8 11 11 10 11 11 12 12 11 12 14 14 11 5 6 5 4 13 16 15 14 14 14 14 15
14 12 9 9 8 7 6 5 4 4 5 5 4 6 5 5 4 5 9 10 10 9 10 11 11 10 8 4 7 10 4 5 5 5 6 15 15 15 14 14 14 14 14
13 12 12 12 10 9 5 5 3 3 3 4 6 6 5 4 4 4 3 4 4 6 4 5 5 4 4 3 3 4 4 4 3 4 6 15 15 14 14 13 13 14 14
10 14 13 12 11 10 7 6 5 4 4 4 5 7 5 4 4 4 3 3 2 2 2 3 3 4 5 5 5 5 5 4 3 3 5 14 14 13 13 13 13 14 14
13 14 14 13 13 11 9 6 7 6 6 5 5 6 6 5 5 4 3 3 3 2 2 3 3 4 5 5 5 6 6 6 5 4 4 12 13 12 12 12 13 14 15
18 17 15 16 14 12 10 8 7 7 6 5 5 6 7 5 5 5 4 4 3 2 2 3 3 4 3 3 5 6 6 6 5 5 4 7 11 12 12 12 13 14 15
18 16 17 16 14 14 13 11 7 7 7 6 6 6 7 6 6 5 5 4 3 3 3 3 3 3 3 4 5 6 5 6 6 5 5 4 5 9 11 12 13 14 15
14 16 18 16 17 16 13 11 8 7 7 6 6 6 7 7 7 6 5 4 4 3 3 3 2 2 3 3 4 5 5 5 6 5 4 4 3 3 7 11 12 13 14
19 19 19 19 19 18 14 10 8 8 8 6 6 6 7 8 7 6 5 4 5 3 3 2 2 2 2 3 4 5 4 5 5 5 5 4 4 4 3 7 11 13 15
17 18 19 19 18 15 11 7 6 7 7 6 7 7 8 7 8 6 5 5 5 4 3 2 3 2 2 2 4 5 4 4 4 3 3 3 3 4 4 4 5 8 16
15 17 20 20 19 15 13 12 10 10 8 7 7 9 9 8 8 7 5 6 5 4 5 4 3 3 2 2 3 5 4 4 4 2 3 3 4 4 4 4 4 5 6
20 21 21 22 21 21 16 12 6 6 5 6 6 8 10 10 9 8 7 6 6 5 5 4 4 3 2 2 3 3 5 5 4 4 4 4 4 3 3 4 5 6 5
19 23 21 23 21 20 14 9 6 4 3 5 7 9 10 11 10 8 9 7 7 6 6 5 5 5 4 2 2 3 1 2 5 5 4 4 4 3 3 4 5 5 6
22 19 20 20 19 18 17 16 17 13 13 12 8 8 9 10 11 10 9 8 8 6 6 6 5 4 5 4 2 1 2 3 2 6 4 4 5 5 4 5 5 6 7
16 16 16 17 17 16 18 19 18 15 11 5 6 10 10 9 10 10 10 9 8 6 7 7 6 5 4 5 4 3 2 2 3 3 7 5 4 4 4 5 6 6 8
10 12 14 17 18 17 19 19 20 18 13 10 10 12 10 7 8 11 11 10 9 7 8 7 6 7 5 5 4 4 4 3 3 4 5 6 8 5 6 7 7 6 6
Wind_Direction
171 179 140 132 125 122 119 118 115 112 110 106 103 99 95 89 83 76 70 66 63 61 59 56 52 47 41 36 33 30 28 21 11 2 357 352 346 336 332 7 14 12 19
157 151 130 126 122 119 117 114 112 110 108 105 101 97 94 90 85 79 72 67 64 61 58 54 50 44 38 32 27 23 19 12 5 359 355 352 346 345 351 24 20 19 20
141 136 133 134 132 126 121 116 112 110 108 106 102 99 96 94 90 84 76 69 66 62 57 53 48 42 35 28 22 18 12 7 1 356 356 354 350 2 27 39 29 23 17
140 136 141 142 141 136 131 126 121 117 113 111 107 104 101 98 93 87 80 74 68 64 59 53 46 40 34 27 21 15 9 4 359 356 356 350 348 5 30 39 31 24 14
137 139 149 148 146 143 140 135 130 126 122 118 114 110 106 100 95 90 84 77 71 66 60 54 47 41 35 30 23 17 10 5 2 359 351 348 344 353 16 31 30 22 10
141 145 158 154 151 148 144 140 136 132 128 124 120 114 109 104 99 94 89 83 77 70 64 57 51 45 40 35 29 23 17 13 10 356 350 350 347 345 357 18 26 18 7
146 151 163 158 156 153 149 145 141 138 134 130 125 120 115 109 104 98 93 88 82 75 68 61 55 50 46 39 34 29 25 20 17 0 353 354 353 357 359 10 16 10 3
146 149 158 160 158 156 153 150 147 144 141 137 132 126 120 114 108 102 97 91 85 78 70 64 58 54 48 41 36 31 28 26 15 5 357 358 1 3 6 8 9 4 357
144 143 143 151 159 160 156 154 151 148 145 141 136 129 122 116 110 103 98 93 87 80 73 68 61 55 48 41 36 31 27 22 17 7 6 0 1 2 4 4 2 358 354
156 157 156 152 148 150 156 157 153 151 149 144 137 131 125 118 112 104 97 95 89 83 78 72 63 56 47 41 35 30 24 18 11 5 360 356 358 359 359 359 357 353 349
180 180 171 166 163 157 158 163 155 153 153 147 142 137 126 111 105 101 103 99 93 87 82 75 66 58 49 37 32 27 21 9 5 360 355 354 357 356 355 355 353 350 347
193 190 182 175 172 169 173 156 153 149 148 143 141 136 133 133 135 122 111 105 96 87 80 74 67 55 49 31 22 22 11 1 4 353 352 353 356 353 352 351 350 349 348
192 188 186 181 177 177 174 167 169 156 153 158 158 151 141 131 126 116 108 105 97 88 76 66 58 46 36 27 16 9 2 359 352 341 341 351 352 351 352 352 353 353 353
189 196 188 182 180 182 176 176 174 170 169 172 172 161 150 145 145 147 142 139 124 114 95 72 58 42 33 22 13 4 356 352 341 336 333 346 349 353 355 358 359 359 360
200 197 191 184 184 182 179 182 181 182 179 176 173 170 163 158 159 157 151 145 137 121 98 79 59 42 30 17 8 357 343 339 335 335 329 335 344 351 357 1 4 4 3
206 200 191 190 187 181 184 187 183 183 178 175 179 177 171 165 162 158 152 148 142 129 111 93 74 53 32 10 355 344 330 327 328 326 319 324 334 344 352 359 4 5 4
206 197 192 191 186 185 186 188 182 181 177 181 183 178 173 169 165 159 153 152 151 137 116 96 79 63 37 9 346 331 323 323 323 321 317 312 320 334 345 354 1 4 3
199 194 194 192 189 190 188 184 182 181 180 183 180 178 176 172 166 159 156 157 153 138 124 111 90 71 33 3 336 321 318 315 320 318 316 317 323 328 341 356 6 7 4
201 195 192 192 190 190 185 180 178 176 182 181 178 182 181 174 168 161 160 157 150 137 134 128 97 95 37 352 326 313 315 315 317 317 321 329 339 343 346 3 17 14 4
203 196 192 191 188 182 176 167 168 177 184 180 183 186 181 177 169 161 159 159 150 140 140 131 117 91 59 343 329 322 313 312 309 308 322 342 345 352 6 19 25 5 354
199 195 192 189 185 178 179 181 182 190 187 188 190 187 183 179 172 166 164 161 158 157 162 154 134 105 63 14 14 345 332 322 326 2 359 344 348 352 2 21 16 357 341
199 197 194 192 186 185 187 184 174 163 180 186 185 188 187 182 178 177 170 170 166 159 162 165 153 131 97 54 79 35 350 342 339 353 337 333 333 339 342 357 352 337 326
201 198 195 192 188 186 174 160 139 130 123 175 196 196 192 186 183 179 176 171 173 169 170 171 166 145 136 107 106 122 105 293 310 313 305 305 303 306 304 323 316 308 306
206 198 194 189 185 180 171 174 175 186 194 197 189 186 184 187 185 182 178 177 176 174 173 174 173 157 140 143 137 143 168 173 261 308 286 264 269 273 273 294 294 285 283
201 191 189 182 181 177 178 182 186 196 198 169 164 177 185 189 188 184 181 180 180 177 176 174 167 165 152 149 155 153 161 186 207 247 291 296 284 244 256 271 269 269 272
185 179 177 179 183 179 183 185 192 196 187 178 184 187 189 188 190 189 184 185 184 180 179 177 171 171 166 156 157 162 167 180 189 213 268 298 302 286 285 267 258 254 253